Hourly Data Report for November 03, 2019

OTTAWA INTL A
ONTARIO
Current Station Operator: NAVCAN

45°19'00.000" N
75°40'00.000" W
114.90 m
6106001
71628
YOW

Download Data

Hourly Data (November 2019)
Hourly Data Report for November 3, 2019
TIME Temp Definition
°C
Dew Point Definition
°C
Rel Hum Definition
%
Wind Dir Definition
10's deg

Wind Spd Definition
km/h
Visibility Definition
km
Stn Press Definition
kPa
Hmdx Definition


Wind Chill Definition


Weather Definition


00:00 2.6 1.7 94 24 8 16.1 100.01     LegendNANA
01:00 1.8 1.2 96 19 5 16.1 99.98     Mostly Cloudy
02:00 1.0 0.6 97 23 8 16.1 99.97     LegendNANA
03:00 0.5 0.1 97 21 7 12.9 99.96     LegendNANA
04:00 -0.2 -0.6 97 28 7 8.1 99.94   -3 Fog
05:00 0.6 0.3 98 20 8 6.4 99.95     Fog
06:00 1.1 0.8 98 18 7 8.1 99.90     Fog
07:00 1.5 1.2 98 19 9 6.4 99.93     Fog
08:00 1.9 1.5 97 21 9 6.4 99.97     Fog
09:00 2.6 1.9 95 23 17 6.4 100.00     Rain,Fog
10:00 4.6 2.3 85 24 22 24.1 100.03     Mostly Cloudy
11:00 5.1 1.2 76 24 20 24.1 100.07     LegendNANA
12:00 5.1 0.7 73 23 17 24.1 100.09     LegendNANA
13:00 7.5 -0.2 58 28 22 24.1 100.07     Mostly Cloudy
14:00 7.5 -0.9 55 28 14 24.1 100.09     LegendNANA
15:00 6.1 0.2 66 23 21 24.1 100.14     Rain Showers
16:00 2.8 0.9 87 25 12 24.1 100.22     Rain Showers
17:00 2.8 1.0 88 21 8 24.1 100.26     LegendNANA
18:00 2.8 0.9 87 27 15 24.1 100.37     Rain
19:00 2.6 0.8 88 23 12 24.1 100.43     Mostly Cloudy
20:00 1.9 -0.1 87 26 15 24.1 100.48     LegendNANA
21:00 1.2 -0.4 89 24 9 24.1 100.56     LegendNANA
22:00 0.8 -0.6 91 24 14 24.1 100.62     Mainly Clear
23:00 0.5 -1.2 88 24 12 24.1 100.65     LegendNANA

Notes on Data Quality.

Legend

  • E = Estimated
  • M = Missing
  • NA = Not Available*
  • [empty] = Indicates an unobserved value
Date modified: